RADUGA-1M 3 [+]

Last updated on Wed Jun 28 2023 00:02:57 GMT+0000 (Coordinated Universal Time)

1 39375U 13062A 23177.69743389 .00000171 00000+0 00000+0 0 9995 2 39375 3.1781 85.5057 0001761 233.5334 241.5354 1.00272337 35239
UTC large
Height (km)
Speed (km/s)
/
Latitude / Longitude
Inclination (degrees)
Orbital Period (minutes)
Azimuth
Elevation
Range (km)
Doppler Factor

Next 0 passes for location: London (51.5072 / 0.1276)

Sorry there are no passes over London.